FGRST (GLAST)

Last updated on Sat Oct 18 2025 00:02:45 GMT+0000 (Coordinated Universal Time)

1 33053U 08029A 25290.75877692 .00005003 00000+0 19852-3 0 9997 2 33053 25.5820 85.6050 0008491 354.0364 6.0072 15.22031981958839
UTC large
Height (km)
Speed (km/s)
/
Latitude / Longitude
Inclination (degrees)
Orbital Period (minutes)
Azimuth
Elevation
Range (km)
Doppler Factor

Next 0 passes for location: London (51.5072 / 0.1276)

Sorry there are no passes over London.